Date String (YYYY-MM-DD hh:mm:ss) UTC,Instrument flags,Ambient pressure (hPa),Sample flow (lpm),Bypass flow (lpm),Sample temperature (°C),Ambient temperature (°C),ASC tube jacket temperature (°C),LED temperature (°C),Box temperature (°C),Sample RH (%),Span deviation,Mass concentration (μg/m³),Mass concentration (μg/m³),Mass concentration (μg/m³)
DateTimeUTC,F1_M11,P_M11,Q1_M11,Q2_M11,T1_M11,T2_M11,T3_M11,T4_M11,T5_M11,U1_M11,ZSPAN_M11,X0_M11,X2_M11,X1_M11
2022-10-16 00:00:00,,0830.2,5.00,0.00,29.8,28.5,00.0,38.5,31.7,14.9,0000.0,0010.49,0004.61,0003.89
2022-10-16 00:01:00,,0830.1,4.99,0.00,29.8,28.5,00.0,38.5,31.7,14.8,0000.0,0010.69,0004.61,0003.89
2022-10-16 00:02:00,,0830.1,5.00,0.00,29.8,28.5,00.0,38.5,31.7,14.9,0000.0,0010.61,0004.63,0003.88
2022-10-16 00:03:00,,0830.1,5.01,0.00,29.8,28.5,00.0,38.5,31.7,14.9,0000.0,0010.38,0004.62,0003.87
2022-10-16 00:04:00,,0830.2,5.01,0.00,29.8,28.6,00.0,38.6,31.7,14.9,0000.0,0010.47,0004.59,0003.87
2022-10-16 00:05:00,,0830.2,4.98,0.00,29.8,28.6,00.0,38.6,31.7,14.9,0000.0,0011.02,0004.59,0003.87
2022-10-16 00:06:00,,0830.2,5.00,0.00,29.8,28.6,00.0,38.6,31.7,14.9,0000.0,0011.16,0004.54,0003.85
2022-10-16 00:07:00,,0830.2,5.01,0.00,29.9,28.6,00.0,38.6,31.8,14.9,0000.0,0011.31,0004.52,0003.85
2022-10-16 00:08:00,,0830.2,4.98,0.00,29.9,28.6,00.0,38.6,31.8,14.9,0000.0,0011.51,0004.54,0003.85
2022-10-16 00:09:00,,0830.3,5.01,0.00,29.9,28.7,00.0,38.6,31.7,14.8,0000.0,0011.81,0004.54,0003.85
2022-10-16 00:10:00,,0830.3,5.00,0.00,29.9,28.7,00.0,38.6,31.8,14.8,0000.0,0011.96,0004.56,0003.85
2022-10-16 00:11:00,,0830.4,4.99,0.00,29.9,28.7,00.0,38.6,31.8,14.8,0000.0,0012.67,0004.56,0003.85
2022-10-16 00:12:00,,0830.4,5.00,0.00,29.9,28.7,00.0,38.7,31.8,14.7,0000.0,0013.17,0004.53,0003.84
2022-10-16 00:13:00,,0830.4,5.00,0.00,29.9,28.8,00.0,38.7,31.8,14.7,0000.0,0013.43,0004.51,0003.85
2022-10-16 00:14:00,,0830.5,5.00,0.00,29.9,28.7,00.0,38.7,31.8,14.7,0000.0,0013.27,0004.50,0003.86
2022-10-16 00:15:00,,0830.4,5.00,0.00,30.0,28.7,00.0,38.7,31.9,14.7,0000.0,0013.17,0004.51,0003.86
2022-10-16 00:16:00,,0830.4,4.99,0.00,30.0,28.6,00.0,38.7,31.8,14.7,0000.0,0013.06,0004.54,0003.85
2022-10-16 00:17:00,,0830.4,5.03,0.00,30.0,27.3,00.0,38.7,31.7,14.7,0000.0,0013.00,0004.59,0003.87
2022-10-16 00:18:00,,0830.4,4.98,0.00,29.9,26.4,00.0,38.6,31.6,14.7,0000.0,0012.93,0004.59,0003.87
2022-10-16 00:19:00,,0830.4,5.02,0.00,29.8,26.5,00.0,38.6,31.5,14.7,0000.0,0013.09,0004.57,0003.87
2022-10-16 00:20:00,,0830.4,4.99,0.00,29.8,26.8,00.0,38.5,31.4,14.8,0000.0,0013.72,0004.55,0003.87
2022-10-16 00:21:00,,0830.4,5.01,0.00,29.7,27.1,00.0,38.5,31.4,14.8,0000.0,0014.63,0004.54,0003.87
2022-10-16 00:22:00,,0830.4,5.00,0.00,29.7,27.4,00.0,38.5,31.4,14.9,0000.0,0015.10,0004.53,0003.86
2022-10-16 00:23:00,,0830.4,4.99,0.00,29.7,27.6,00.0,38.5,31.4,14.9,0000.0,0014.63,0004.57,0003.88
2022-10-16 00:24:00,,0830.5,4.99,0.00,29.7,27.7,00.0,38.5,31.4,14.9,0000.0,0013.92,0004.53,0003.87
2022-10-16 00:25:00,,0830.5,5.01,0.00,29.6,27.9,00.0,38.5,31.4,15.0,0000.0,0014.47,0004.52,0003.86
2022-10-16 00:26:00,,0830.5,5.01,0.00,29.6,28.0,00.0,38.5,31.5,15.0,0000.0,0015.16,0004.55,0003.87
2022-10-16 00:27:00,,0830.5,5.00,0.00,29.6,28.1,00.0,38.5,31.5,15.0,0000.0,0014.85,0004.52,0003.88
2022-10-16 00:28:00,,0830.5,4.99,0.00,29.7,28.2,00.0,38.5,31.5,15.0,0000.0,0014.92,0004.51,0003.88
2022-10-16 00:29:00,,0830.5,5.00,0.00,29.7,28.2,00.0,38.5,31.5,15.0,0000.0,0015.92,0004.57,0003.89
2022-10-16 00:30:00,,0830.5,5.01,0.00,29.7,28.3,00.0,38.5,31.5,15.0,0000.0,0016.92,0004.61,0003.91
2022-10-16 00:31:00,,0830.6,5.02,0.00,29.7,28.3,00.0,38.5,31.5,14.9,0000.0,0016.24,0004.66,0003.92
2022-10-16 00:32:00,,0830.6,4.99,0.00,29.7,28.3,00.0,38.5,31.5,14.9,0000.0,0015.52,0004.72,0003.94
2022-10-16 00:33:00,,0830.6,4.99,0.00,29.7,28.3,00.0,38.5,31.6,15.0,0000.0,0013.98,0004.70,0003.94
2022-10-16 00:34:00,,0830.6,5.01,0.00,29.7,28.4,00.0,38.5,31.6,15.0,0000.0,0012.92,0004.65,0003.94
2022-10-16 00:35:00,,0830.6,5.01,0.00,29.7,28.4,00.0,38.5,31.6,15.0,0000.0,0012.99,0004.66,0003.93
2022-10-16 00:36:00,,0830.6,4.99,0.00,29.7,28.4,00.0,38.5,31.6,15.0,0000.0,0012.67,0004.68,0003.94
2022-10-16 00:37:00,,0830.6,5.00,0.00,29.7,28.4,00.0,38.5,31.6,14.9,0000.0,0011.98,0004.68,0003.95
2022-10-16 00:38:00,,0830.6,5.01,0.00,29.7,28.4,00.0,38.5,31.6,15.0,0000.0,0011.71,0004.66,0003.95
2022-10-16 00:39:00,,0830.6,5.00,0.00,29.7,28.4,00.0,38.5,31.6,15.0,0000.0,0011.89,0004.67,0003.97
2022-10-16 00:40:00,,0830.6,5.01,0.00,29.8,28.5,00.0,38.5,31.6,15.1,0000.0,0011.40,0004.64,0003.98
2022-10-16 00:41:00,,0830.6,5.00,0.00,29.8,28.5,00.0,38.5,31.7,15.1,0000.0,0010.31,0004.62,0003.97
2022-10-16 00:42:00,,0830.7,5.00,0.00,29.8,28.5,00.0,38.5,31.7,15.0,0000.0,0010.23,0004.60,0003.96
2022-10-16 00:43:00,,0830.7,5.00,0.00,29.8,28.6,00.0,38.6,31.7,14.8,0000.0,0010.02,0004.57,0003.95
2022-10-16 00:44:00,,0830.7,5.00,0.00,29.8,28.6,00.0,38.6,31.7,14.8,0000.0,0010.57,0004.60,0003.96
2022-10-16 00:45:00,,0830.8,5.00,0.00,29.8,28.6,00.0,38.6,31.7,14.8,0000.0,0010.99,0004.63,0003.96
2022-10-16 00:46:00,,0830.8,5.00,0.00,29.8,28.7,00.0,38.6,31.7,14.9,0000.0,0011.48,0004.63,0003.98
2022-10-16 00:47:00,,0830.8,5.00,0.00,29.9,28.7,00.0,38.6,31.8,15.0,0000.0,0011.75,0004.66,0003.98
2022-10-16 00:48:00,,0830.9,5.00,0.00,29.9,28.7,00.0,38.6,31.8,15.0,0000.0,0011.96,0004.67,0003.98
2022-10-16 00:49:00,,0830.9,5.00,0.00,29.9,28.7,00.0,38.6,31.8,14.9,0000.0,0012.70,0004.70,0003.97
2022-10-16 00:50:00,,0830.9,4.99,0.00,29.9,28.8,00.0,38.7,31.9,15.0,0000.0,0012.61,0004.71,0003.95
2022-10-16 00:51:00,,0830.9,4.98,0.00,30.0,28.8,00.0,38.7,31.9,15.2,0000.0,0012.46,0004.72,0003.93
2022-10-16 00:52:00,,0830.9,5.01,0.00,30.0,28.8,00.0,38.7,31.9,15.4,0000.0,0012.54,0004.73,0003.91
2022-10-16 00:53:00,,0830.9,5.01,0.00,30.0,28.8,00.0,38.7,31.9,15.5,0000.0,0012.96,0004.73,0003.90
2022-10-16 00:54:00,,0831.0,4.99,0.00,30.0,28.9,00.0,38.7,31.9,15.7,0000.0,0013.46,0004.77,0003.88
2022-10-16 00:55:00,,0831.0,5.00,0.00,30.0,28.9,00.0,38.7,31.9,15.8,0000.0,0013.89,0004.78,0003.84
2022-10-16 00:56:00,,0831.1,5.01,0.00,30.0,28.9,00.0,38.8,32.0,15.7,0000.0,0013.57,0004.79,0003.82
2022-10-16 00:57:00,,0831.0,5.00,0.00,30.1,28.9,00.0,38.8,32.0,15.7,0000.0,0013.17,0004.81,0003.79
2022-10-16 00:58:00,,0831.1,4.98,0.00,30.1,28.9,00.0,38.8,32.0,15.7,0000.0,0013.19,0004.85,0003.76
2022-10-16 00:59:00,,0831.1,4.99,0.00,30.1,28.9,00.0,38.8,32.0,15.8,0000.0,0013.53,0004.86,0003.74
